SCP
0 0 0 0 0 0 0 0 0 0 0 0 0 0 0 0 0 0 0 0 0 0 0 0 0 0 0 0 0 0 0 0 0 0 0 0 0 0 0 0 0 0 0
0 0 0 0 0 0 0 0 0 0 0 0 0 0 0 0 0 0 0 0 0 0 0 0 0 0 0 0 0 0 0 0 0 0 0 0 0 0 0 0 0 0 0
0 0 0 0 0 0 0 0 0 0 0 0 0 0 0 0 0 0 0 0 0 0 0 0 0 0 0 0 0 0 0 0 0 0 0 0 0 0 0 0 0 0 0
0 0 0 0 0 0 0 0 0 0 0 0 0 0 0 0 0 0 0 0 0 0 0 0 0 0 0 0 0 0 0 0 0 0 0 0 0 0 0 0 0 0 0
0 0 0 0 0 0 0 0 0 0 0 0 0 0 0 0 0 0 0 0 0 0 0 0 0 0 0 0 0 0 0 0 0 0 0 0 0 0 0 0 0 0 0
0 0 0 0 0 0 0 0 0 0 0 0 0 0 0 0 0 0 0 0 0 0 0 0 0 0 0 0 0 0 0 0 0 0 0 0 0 0 0 0 0 0 0
0 0 0 0 0 0 0 0 0 0 0 0 0 0 0 0 0 0 0 0 0 0 0 0 0 0 0 0 0 0 0 0 0 0 0 0 0 0 0 0 0 0 0
0 0 0 0 0 0 0 0 0 0 0 0 0 0 0 0 0 0 0 0 0 0 0 0 0 0 0 0 0 0 0 0 0 0 0 0 0 0 0 0 0 0 0
0 0 0 0 0 0 0 0 0 0 0 0 0 0 0 0 0 0 0 0 0 0 0 0 0 0 0 0 0 0 0 0 0 0 0 0 0 0 0 0 0 0 0
0 0 0 0 0 0 0 0 0 0 0 0 0 0 0 0 0 0 0 0 0 0 0 0 0 0 0 0 0 0 0 0 0 0 0 0 0 0 0 0 0 0 0
0 0 0 0 0 0 0 0 0 0 0 0 0 0 0 0 0 0 0 0 0 0 0 0 0 0 0 0 0 0 0 0 0 0 0 0 0 0 0 0 0 0 0
0 0 0 0 0 0 0 0 0 0 0 0 0 0 0 0 0 0 0 0 0 0 0 0 0 0 0 0 0 0 0 0 0 0 0 0 0 0 0 0 0 0 0
0 0 0 0 0 0 0 0 0 0 0 0 0 0 0 0 0 0 0 0 0 0 0 0 0 0 0 0 0 0 0 0 0 0 0 0 0 0 0 0 0 0 0
0 0 0 0 0 0 0 0 0 0 0 0 0 0 0 0 0 0 0 0 0 0 0 0 0 0 0 0 0 0 0 0 0 0 0 0 0 0 0 0 0 0 0
0 0 0 0 0 0 0 0 0 0 0 0 0 0 0 0 0 0 0 0 0 0 0 0 0 0 0 0 0 0 0 0 0 0 0 0 0 0 0 0 0 0 0
0 0 0 0 0 0 0 0 0 0 0 0 0 0 0 0 0 0 0 0 0 0 0 0 0 0 0 0 0 0 0 0 0 0 0 0 0 0 0 0 0 0 0
0 0 0 0 0 0 0 0 0 0 0 0 0 0 0 0 0 0 0 0 0 0 0 0 0 0 0 0 0 0 0 0 0 0 0 0 0 0 0 0 0 0 0
0 0 0 0 0 0 0 0 0 0 0 0 0 0 0 0 0 0 0 0 0 0 0 0 0 0 0 0 0 0 0 0 0 0 0 0 0 0 0 0 0 0 0
0 0 0 0 0 0 0 0 0 0 0 0 0 0 0 0 0 0 0 0 0 0 0 0 0 0 0 0 0 0 0 0 0 0 0 0 0 0 0 0 0 0 0
0 0 0 0 0 0 0 0 0 0 0 0 0 0 0 0 0 0 0 0 0 0 0 0 0 0 0 0 0 0 0 0 0 0 0 0 0 0 0 0 0 0 0
0 0 0 0 0 0 0 0 0 0 0 0 0 0 0 0 0 0 0 0 0 0 0 0 0 0 0 0 0 0 0 0 0 0 0 0 0 0 0 0 0 0 0
0 0 0 0 0 0 0 0 0 0 0 0 0 0 0 0 0 0 0 0 0 0 0 0 0 0 0 0 0 0 0 0 0 0 0 0 0 0 0 0 0 0 0
0 0 0 0 0 0 0 0 0 0 0 0 0 0 0 0 0 0 0 0 0 0 0 0 0 0 0 0 0 0 0 0 0 0 0 0 0 0 0 0 0 0 0
0 0 0 0 0 0 0 0 0 0 0 0 0 0 0 0 0 0 0 0 0 0 0 0 0 0 0 0 0 0 0 0 0 0 0 0 0 0 0 0 0 0 0
0 0 0 0 0 0 0 0 0 0 0 0 0 0 0 0 0 0 0 0 0 0 0 0 0 0 0 0 0 0 0 0 0 0 0 0 0 0 0 0 0 0 0
0 0 0 0 0 0 0 0 0 0 0 0 0 0 0 0 0 0 0 0 0 0 0 0 0 0 0 0 0 0 0 0 0 0 0 0 0 0 0 0 0 0 0
Wind_Speed
9 11 11 4 4 3 2 1 2 4 4 4 4 3 3 4 4 3 2 2 2 2 1 1 3 3 4 4 5 6 7 7 8 6 2 2 4 4 4 4 5 5 6
8 9 8 6 5 4 4 2 2 3 4 6 5 6 6 5 5 5 5 3 3 2 1 2 5 5 5 5 6 7 8 8 8 7 4 3 4 3 3 4 4 5 5
10 7 4 4 2 2 2 2 1 2 3 3 3 6 7 7 7 6 6 5 2 2 1 2 4 4 4 4 5 5 6 6 6 6 5 3 2 1 2 2 2 3 5
5 3 5 3 4 5 4 2 2 2 2 3 4 5 4 4 5 6 7 7 5 4 3 3 2 2 3 4 4 4 5 5 6 7 4 3 2 1 1 2 3 4 4
4 6 5 4 5 5 3 3 4 3 2 3 3 3 2 3 4 6 7 8 7 6 4 2 1 1 3 2 2 1 1 2 2 3 2 2 2 2 3 3 4 3 4
3 3 5 5 3 3 4 5 4 3 2 2 4 3 2 2 2 4 6 6 6 6 5 3 3 2 3 4 5 5 4 4 3 2 2 4 4 3 3 3 4 3 4
8 7 5 3 4 5 5 5 6 5 4 4 4 3 3 4 6 4 4 5 5 5 5 5 4 4 5 4 5 6 5 6 5 3 2 3 2 4 3 3 4 4 4
8 8 9 9 9 8 7 7 7 6 6 5 4 3 3 6 11 9 5 2 3 4 5 5 4 3 3 4 4 4 4 4 5 5 5 5 3 3 3 3 4 4 2
5 5 6 6 7 8 7 6 6 5 6 6 5 5 5 7 12 9 6 3 1 1 2 3 3 3 6 6 5 4 5 6 7 10 11 10 10 8 6 5 4 3 3
6 6 6 6 7 6 5 4 4 4 4 5 6 6 7 7 12 14 10 4 3 2 2 3 4 5 8 6 5 5 6 6 5 5 7 9 8 5 5 5 4 3 3
5 5 5 4 4 4 4 4 4 5 5 6 5 5 6 7 9 14 13 5 3 3 3 3 3 7 7 7 5 6 7 4 3 3 2 1 1 1 1 2 1 1 1
2 3 4 4 4 4 4 4 5 5 5 6 6 6 5 6 10 13 15 13 9 4 4 4 4 7 7 6 4 7 8 4 2 2 1 1 1 1 1 0 1 1 1
1 2 3 3 3 3 4 4 4 4 5 5 5 6 6 5 6 11 12 12 12 6 4 7 8 9 8 5 5 6 6 4 3 2 1 1 1 1 1 1 1 1 1
1 0 1 2 3 3 3 3 3 3 4 4 4 4 5 5 5 5 4 4 7 6 5 5 7 7 5 3 3 4 4 3 2 2 2 2 2 1 1 1 1 1 1
1 0 1 2 2 1 2 2 2 2 2 1 2 3 3 4 6 8 6 6 7 7 4 1 2 1 1 1 3 3 3 3 3 2 2 2 2 1 0 1 1 1 1
1 1 1 1 2 2 1 2 2 2 2 2 5 5 4 7 11 12 11 14 19 13 1 1 1 1 2 2 2 3 2 2 3 3 3 3 2 1 1 0 0 1 2
2 1 1 2 2 2 2 2 2 2 2 3 5 7 8 9 11 10 9 10 11 10 5 4 2 3 4 4 3 3 3 3 3 3 3 3 3 3 3 2 2 2 2
2 3 3 2 2 2 2 2 2 2 3 3 4 6 7 9 13 14 11 7 7 7 6 7 6 6 6 5 4 4 4 4 4 4 4 4 4 3 3 3 3 2 2
4 3 3 2 2 2 2 3 3 3 3 3 4 6 8 8 11 14 13 7 6 6 7 7 7 6 6 5 5 5 5 5 4 4 3 3 3 2 2 2 3 4 4
4 5 5 3 2 3 2 3 3 3 3 3 4 4 5 6 7 7 7 6 5 5 5 6 6 6 6 5 5 5 5 5 5 4 3 2 2 2 2 3 3 4 4
4 4 5 3 2 3 2 2 2 2 3 3 3 4 5 5 4 4 5 5 5 6 6 6 6 6 6 6 6 6 6 5 5 5 4 4 3 2 2 3 3 3 4
5 4 4 4 3 2 3 2 2 2 2 2 2 4 6 4 4 4 4 4 5 5 5 5 5 5 5 5 5 4 4 4 4 5 4 4 3 3 3 3 3 4 4
5 5 5 4 3 3 3 2 2 2 2 1 2 2 2 3 3 3 3 3 4 4 5 5 5 4 4 4 4 4 3 3 3 3 3 3 3 3 3 3 4 4 4
4 4 5 4 3 2 2 2 2 2 2 2 1 0 1 2 2 3 3 3 3 4 5 4 4 4 5 4 4 4 4 3 2 2 3 2 3 3 4 3 4 4 5
3 3 4 4 4 3 3 3 2 2 2 1 1 0 2 2 2 2 2 3 3 4 4 4 4 5 6 6 6 5 6 7 6 5 4 4 5 5 4 4 4 4 5
3 4 3 3 3 4 4 3 3 2 1 1 1 1 2 2 3 3 2 3 3 3 3 4 5 6 6 6 6 8 8 9 8 7 5 4 4 4 4 4 5 4 4
Wind_Direction
97 85 77 80 130 160 187 212 225 210 180 179 189 165 171 198 202 187 208 200 208 237 262 261 262 224 203 201 199 202 210 202 228 241 216 219 186 186 199 192 193 193 207
101 110 140 182 167 191 205 198 285 271 210 204 185 173 183 191 191 190 183 193 197 210 228 275 280 264 238 217 207 208 213 206 214 236 221 203 209 179 171 180 195 201 203
144 144 195 231 224 275 345 40 17 310 276 253 212 198 190 185 184 194 183 172 193 234 235 254 277 279 268 246 227 222 216 207 205 221 225 194 196 138 124 140 187 211 214
112 182 204 232 301 326 32 38 29 30 354 297 252 235 223 207 193 182 181 168 184 210 237 268 277 268 274 266 250 237 218 207 198 206 198 178 186 169 162 190 215 211 215
347 310 341 354 331 334 33 28 24 38 26 296 275 244 242 231 210 190 176 173 179 190 209 240 301 327 300 290 286 287 210 196 196 198 175 164 171 175 209 198 215 194 213
36 325 334 343 349 4 14 13 8 9 314 262 266 277 289 279 260 216 185 177 181 186 198 213 228 233 255 276 281 272 237 200 183 191 207 220 207 198 202 192 183 171 210
32 22 6 0 22 21 11 2 4 359 345 344 343 328 326 7 6 5 183 180 185 197 200 205 212 219 227 251 278 282 245 218 197 182 207 236 234 212 199 200 198 188 196
29 26 22 32 35 31 31 25 18 8 5 357 6 16 15 11 7 8 8 144 179 204 209 215 214 225 234 225 231 253 257 238 216 206 216 234 227 214 218 218 201 194 192
37 37 36 45 48 40 34 25 12 14 23 24 28 33 37 22 15 24 57 53 37 293 239 225 225 246 250 226 206 226 247 246 236 237 233 234 231 227 225 222 200 189 202
20 24 24 32 41 35 26 27 12 18 19 26 35 29 37 30 30 38 44 33 18 6 293 274 265 266 276 252 212 206 231 242 222 237 251 253 244 238 244 240 218 191 173
8 20 18 28 44 32 31 29 22 22 22 25 32 23 26 23 24 28 25 18 351 325 297 280 274 274 274 282 256 213 213 217 221 212 243 248 191 132 12 320 246 170 160
17 40 25 21 24 30 47 38 33 30 28 17 11 2 4 9 13 12 7 1 347 319 293 290 290 292 286 278 264 220 207 187 145 146 122 85 102 133 173 228 243 267 245
31 35 18 10 18 28 42 34 33 33 32 21 10 3 359 358 352 358 5 358 347 332 303 301 301 302 293 273 235 192 167 147 137 143 151 119 123 140 111 72 41 33 10
161 347 2 2 4 28 39 41 42 23 22 17 3 2 360 354 345 339 0 359 351 341 321 300 293 296 269 196 140 129 129 138 144 147 135 107 93 85 62 53 34 5 311
161 210 348 355 349 20 83 59 52 37 21 344 339 336 344 336 330 330 333 335 328 307 291 297 305 312 148 121 111 117 125 134 130 125 118 113 110 118 352 6 0 328 303
176 110 13 351 357 0 68 98 75 45 15 13 13 5 332 318 320 324 338 337 332 341 23 52 346 196 135 100 109 108 94 89 79 81 83 78 62 45 5 337 300 294 297
191 154 123 45 39 13 36 54 42 5 327 330 345 340 335 334 340 343 347 338 349 1 32 35 24 63 78 74 74 87 88 80 85 83 79 63 51 39 26 23 15 353 340
183 152 142 114 82 52 51 59 51 26 358 335 338 341 351 17 23 23 17 21 23 18 29 35 35 49 54 53 50 60 70 68 63 64 60 52 42 34 23 10 353 332 308
172 160 150 125 106 95 67 60 53 43 31 1 349 345 354 22 30 28 27 34 28 21 27 36 37 45 50 51 49 55 62 64 65 65 63 62 53 47 19 349 330 314 305
166 158 145 126 112 97 77 65 53 47 43 34 23 1 351 25 33 29 30 22 22 25 28 34 37 40 42 47 51 55 60 58 55 50 39 35 36 40 15 350 350 345 337
147 145 136 122 120 116 106 86 70 57 56 62 33 21 40 54 43 32 36 27 22 24 35 37 35 33 33 32 33 38 43 44 37 24 13 3 2 9 0 348 341 337 331
140 138 130 130 138 135 126 121 105 83 73 80 41 28 45 45 33 35 38 39 39 34 28 33 38 32 26 24 23 25 31 36 31 19 358 345 341 353 1 2 2 355 1
140 139 135 140 156 149 134 134 140 128 113 81 66 45 30 43 44 43 47 46 45 41 36 35 34 27 15 11 13 13 11 10 359 342 324 327 349 9 18 17 10 4 1
154 154 150 155 158 156 148 149 169 163 150 152 149 145 78 74 67 58 49 56 52 47 37 28 29 22 8 4 7 14 15 3 335 312 318 349 28 34 40 27 8 7 9
167 171 167 162 153 148 149 162 193 210 205 192 181 125 114 108 95 83 63 57 56 48 36 29 24 13 9 19 23 23 24 33 37 35 38 42 44 41 37 26 9 17 18
178 174 180 179 165 164 170 180 192 201 205 208 193 125 114 121 121 110 97 79 68 56 40 31 27 20 9 15 20 31 33 30 29 32 44 50 46 40 37 34 29 29 28